Wind_Speed
37 36 36 38 39 40 39 37 34 29 27 26 26 27 29 30 29 27 25 23 20 18 17 17 14 16 25 36 44 51 53 53 53 54 55 57 57 58 59 59 59 59 59 59 59 58 58 58 58 57 56 56 55 55 54 53 52 50 49 49 49 48 47 46 46 47 47 45 43 41 40 41 43 48 51 45 37 36 38 40 41 41 42 42 40 40
34 34 35 37 38 40 41 40 37 33 29 26 24 25 28 30 30 29 26 25 24 20 18 18 17 13 14 23 33 42 48 49 50 51 52 54 56 56 57 58 59 59 59 60 59 59 58 58 58 57 56 56 56 56 56 56 54 53 51 50 50 50 49 48 47 47 49 48 45 44 44 44 42 43 47 50 45 38 36 36 38 41 44 45 44 42
33 35 37 37 37 39 41 42 40 37 33 29 26 25 26 27 28 28 27 26 27 27 23 20 18 14 9 13 21 31 39 42 44 47 48 50 52 54 55 56 58 59 59 59 59 58 57 57 57 57 57 56 56 57 57 57 57 55 53 52 51 51 51 50 49 48 48 48 47 46 46 46 45 43 43 46 47 44 41 38 36 37 40 43 45 44
34 37 37 36 38 39 40 41 41 40 37 34 31 28 26 26 27 28 28 27 27 29 28 23 19 14 10 7 10 18 27 30 33 38 41 43 47 49 52 54 54 57 58 59 59 58 58 57 57 57 57 56 56 56 57 57 57 56 55 53 52 52 52 52 52 52 50 49 50 49 49 50 50 49 45 43 43 44 44 44 44 43 41 40 41 42
36 38 37 37 38 38 39 40 40 40 40 38 36 33 30 28 28 28 29 27 26 27 28 26 22 18 14 10 4 8 17 22 24 29 30 32 37 41 46 50 51 53 55 57 58 58 58 58 57 57 57 57 57 57 57 56 56 56 55 54 53 53 53 54 54 54 52 50 50 51 52 53 53 51 47 42 40 40 43 45 45 49 50 46 43 41
36 37 37 37 36 37 37 38 38 38 39 39 39 37 35 33 32 30 29 28 27 27 28 27 26 22 19 15 10 4 6 15 19 18 18 21 26 32 37 41 45 48 50 53 55 56 57 57 58 57 57 57 57 57 57 57 57 57 56 56 55 54 54 55 55 55 54 53 52 52 53 54 55 55 52 47 42 39 40 40 39 44 50 51 50 45
36 37 37 36 36 35 35 35 36 36 37 38 39 39 38 37 36 34 32 30 29 28 28 27 26 25 22 19 15 12 6 5 13 13 12 16 17 21 28 32 36 40 43 47 50 53 55 56 57 57 58 58 58 58 58 58 57 57 57 57 57 57 56 56 56 56 56 55 55 54 54 54 54 56 56 55 51 47 45 42 40 43 46 48 50 48
37 37 37 35 35 34 33 34 34 34 35 36 37 38 38 38 38 38 36 34 32 29 29 28 26 25 23 21 18 15 12 7 10 14 14 14 10 10 15 22 27 31 35 39 43 47 50 53 54 56 57 58 58 58 58 58 58 58 58 58 58 58 58 57 56 57 57 56 56 56 56 55 54 55 56 56 55 54 53 50 48 47 47 47 49 49
36 37 37 36 35 35 35 35 35 34 34 34 35 36 37 38 38 39 39 37 36 33 31 29 28 26 23 21 21 18 15 12 7 8 11 11 9 7 8 13 18 23 27 31 35 39 43 46 50 53 55 56 57 58 58 59 59 59 59 59 59 59 59 58 58 58 58 58 58 57 57 57 57 56 56 56 56 55 56 57 56 55 54 52 50 50
36 36 37 37 37 37 37 36 35 34 33 33 33 33 35 36 37 38 39 38 37 36 34 31 29 26 24 21 21 19 16 14 12 8 4 5 8 9 10 10 11 15 20 25 29 32 36 40 44 48 51 53 55 57 58 59 60 60 60 60 60 60 60 60 59 59 59 60 60 58 58 59 59 58 57 56 57 57 57 57 57 58 58 58 56 54
34 35 36 37 38 38 38 37 36 35 34 33 32 32 32 34 35 36 37 36 36 36 35 33 30 28 26 24 21 19 17 14 12 11 8 4 2 7 10 11 10 10 14 19 23 27 30 33 37 41 45 48 51 54 56 58 59 60 61 61 61 61 61 61 61 61 60 61 61 60 59 59 60 60 59 58 58 59 59 59 59 59 59 59 60 60
33 34 35 36 37 38 38 38 38 37 36 34 32 31 31 30 32 32 33 34 34 34 34 34 32 30 28 26 24 20 17 15 12 10 8 6 3 1 6 9 11 11 13 15 18 21 23 26 29 33 36 40 44 48 51 54 56 58 59 61 61 62 63 62 62 62 61 61 62 62 61 60 60 61 61 61 60 60 61 61 61 61 61 61 61 61
31 33 34 34 35 36 37 38 38 38 38 37 34 33 31 29 28 28 29 30 31 31 32 32 32 31 29 28 26 23 20 16 13 11 9 7 5 3 2 5 8 11 13 15 16 17 19 21 24 26 29 33 37 41 45 48 51 54 56 58 59 60 62 62 62 62 62 62 62 62 62 61 61 61 61 62 62 62 62 63 63 63 63 64 63 63
29 31 32 33 33 34 35 36 37 38 38 38 37 35 33 31 29 28 27 27 27 28 29 30 30 30 30 28 27 25 23 19 16 13 11 9 7 6 5 6 7 9 11 13 15 17 18 20 21 23 25 28 31 35 38 42 45 48 51 54 56 58 59 61 61 61 61 61 61 62 62 62 62 61 61 61 62 62 63 63 64 64 64 65 65 65
27 28 30 31 31 32 32 33 35 35 36 37 37 35 34 32 30 28 27 25 25 25 25 26 27 27 28 27 26 25 24 22 19 16 14 11 9 8 6 6 7 9 10 12 13 16 18 20 21 22 23 25 27 30 33 36 39 42 46 49 51 54 56 58 59 60 60 60 61 61 61 62 62 62 61 61 61 61 62 63 64 65 65 65 65 66
26 27 28 29 30 31 31 32 32 32 34 35 35 35 34 33 31 29 28 26 24 23 22 22 23 23 24 24 24 24 23 22 20 19 17 15 12 10 8 7 7 8 9 11 13 15 17 20 23 24 25 25 26 28 29 31 34 37 40 43 46 49 51 53 55 57 57 58 59 59 60 61 61 62 62 61 61 61 61 62 63 64 65 65 66 66
26 26 27 28 29 30 31 31 32 31 32 33 33 34 33 32 31 30 29 28 25 23 22 20 19 19 20 21 21 21 21 21 20 19 18 17 15 13 11 9 7 6 7 9 10 13 15 18 21 24 26 28 28 29 30 31 32 34 35 37 39 42 45 48 51 53 54 55 56 56 57 58 59 60 61 61 61 62 62 62 63 64 66 66 67 68
27 27 28 28 28 29 30 30 31 31 31 31 32 32 32 31 31 31 30 29 27 25 23 21 19 18 17 17 18 18 18 18 19 18 18 17 15 14 14 12 11 9 7 6 6 9 11 14 16 19 22 25 28 30 31 33 34 35 35 36 37 39 40 42 45 47 49 50 52 53 54 55 56 57 58 59 60 61 62 63 63 64 66 67 68 69
29 29 29 29 29 29 30 30 31 31 31 31 31 31 31 31 31 30 30 29 28 26 23 22 22 19 16 15 15 15 15 16 16 16 16 16 15 14 13 12 11 11 9 8 6 5 6 8 11 13 15 18 21 24 26 29 31 33 35 36 37 38 40 41 42 44 45 46 47 49 50 51 52 53 55 56 57 59 60 62 63 64 66 67 68 69
30 31 31 32 31 31 31 30 31 31 31 31 31 30 30 31 31 30 30 29 28 27 24 22 22 21 18 17 15 13 13 13 13 14 14 14 14 14 13 12 11 10 10 9 8 7 6 5 6 7 9 10 13 15 17 20 23 25 28 30 32 34 36 38 40 42 43 45 46 46 47 48 49 50 51 53 54 56 57 59 61 62 64 65 66 68
31 31 32 33 33 33 32 32 31 30 30 30 31 31 30 29 29 29 29 28 28 28 26 24 23 22 21 20 19 16 14 13 12 12 12 12 13 13 13 12 11 11 10 9 9 8 8 7 7 7 6 7 7 8 10 12 14 16 18 20 22 24 27 29 31 34 36 38 40 42 43 44 44 45 47 48 51 53 54 56 57 59 60 62 63 64
32 32 32 32 33 33 33 33 32 30 29 29 30 31 32 31 30 29 28 28 27 27 27 26 25 24 22 21 21 19 18 16 14 13 12 11 11 12 12 12 12 11 11 11 10 10 9 9 9 9 8 8 8 8 8 9 10 11 12 13 14 16 18 20 21 23 25 27 29 31 33 35 36 38 39 41 43 45 48 50 52 54 56 57 59 60
35 34 33 32 33 34 34 33 32 31 30 29 29 30 31 32 32 31 29 28 28 26 25 26 26 25 24 23 21 19 19 20 19 17 15 13 12 12 12 12 12 12 12 12 12 11 11 11 11 10 10 10 10 11 11 11 11 12 12 13 14 14 15 17 18 19 20 21 22 24 25 27 29 30 31 33 34 36 38 40 43 45 47 49 51 53
37 37 36 34 32 33 33 32 33 32 30 29 29 29 29 30 31 32 31 30 29 26 25 25 25 25 26 27 24 21 20 20 21 20 20 18 16 15 14 14 14 14 14 14 14 13 13 13 13 12 12 12 13 13 13 13 14 14 14 15 16 16 17 18 19 20 21 22 23 24 25 26 27 28 29 31 32 33 34 35 37 38 39 41 43 44
37 38 39 38 35 34 33 32 32 32 31 29 30 29 29 30 30 30 30 31 31 28 25 25 24 23 27 30 28 25 22 20 20 21 21 22 21 19 18 17 16 16 17 17 16 16 16 15 15 15 15 15 15 15 15 16 16 16 17 18 18 19 20 20 21 22 23 24 24 25 27 28 29 30 31 32 33 34 35 36 37 38 39 40 41 42
36 37 39 39 38 38 38 37 36 34 33 32 31 31 31 31 30 29 28 29 31 29 25 25 24 21 25 31 31 28 26 22 20 21 22 23 23 23 22 21 20 20 20 20 19 19 19 19 19 19 18 18 18 18 18 18 18 19 19 20 21 21 22 23 24 25 26 26 27 28 29 30 31 32 33 35 36 37 38 39 40 41 41 42 43 44
37 36 36 37 37 37 38 40 40 37 34 34 33 32 33 34 33 31 29 27 29 29 25 27 28 22 22 31 32 29 29 27 24 23 22 22 23 24 24 24 23 23 24 25 24 22 22 21 22 22 23 23 22 22 22 21 21 22 22 23 23 23 24 25 26 27 28 29 30 31 32 33 34 35 36 38 39 41 42 43 43 44 45 46 47 47
40 37 36 36 36 37 38 38 40 39 36 35 34 33 34 36 35 33 30 28 29 29 26 27 30 26 25 32 32 29 29 29 29 27 25 23 23 24 24 24 24 25 26 28 28 27 25 24 24 25 26 27 28 26 26 25 25 26 26 26 27 27 27 28 28 29 31 32 33 33 34 35 36 37 39 40 42 43 45 46 47 48 49 50 51 52
43 41 38 37 36 37 38 37 39 40 39 36 35 34 34 36 36 35 32 31 31 30 27 28 30 28 29 33 33 31 31 29 28 28 27 26 24 24 23 23 24 25 27 29 30 31 30 28 27 28 29 31 32 31 30 29 29 30 30 30 31 31 31 31 32 32 34 35 36 36 37 38 39 40 41 42 44 45 47 48 50 51 53 54 55 57
43 43 42 41 37 36 37 37 37 39 39 36 34 35 35 35 36 35 34 34 34 31 28 30 30 28 30 34 33 33 34 32 30 29 28 28 27 26 25 24 24 26 29 30 32 33 33 32 31 31 32 33 33 33 33 32 32 33 33 34 35 35 35 35 35 36 38 39 40 40 41 42 43 43 44 46 47 48 50 51 52 54 55 57 58 60
42 43 44 45 40 36 37 38 36 36 37 35 32 34 35 35 35 35 35 35 36 34 32 33 32 30 31 34 34 33 34 34 34 33 31 29 29 29 29 27 27 29 31 33 35 36 36 35 35 35 36 36 35 35 35 34 34 34 35 36 37 37 37 38 38 39 40 42 43 44 45 46 47 48 49 50 51 52 53 54 56 57 58 60 61 62
41 43 45 47 44 38 37 38 35 34 34 34 34 35 36 36 36 35 35 36 37 37 36 36 36 34 34 35 36 35 35 35 36 37 36 33 32 33 32 31 32 32 34 36 37 38 39 39 39 39 39 38 38 37 37 37 36 36 37 38 38 38 38 39 40 41 42 44 45 46 47 49 50 51 52 53 54 56 57 58 60 61 62 63 64 65
40 42 44 46 46 42 38 38 37 34 34 35 36 36 36 37 37 36 36 36 37 38 39 38 38 37 37 37 38 38 38 37 37 37 37 36 35 36 35 35 35 36 37 39 39 40 41 42 43 43 43 41 40 40 40 40 39 39 40 40 40 40 40 41 42 43 45 46 48 49 50 52 53 53 54 55 57 58 60 62 63 64 65 66 67 68
39 41 43 44 45 44 40 40 39 37 35 36 35 36 37 38 38 38 37 36 38 40 40 40 40 39 40 39 39 39 40 40 39 38 38 38 38 38 38 38 38 37 38 40 41 42 43 44 45 46 46 45 44 44 43 43 43 43 43 44 43 43 44 45 46 47 48 50 51 53 54 55 56 57 58 59 60 61 63 65 66 67 68 70 71 72
39 42 44 44 46 45 43 42 41 39 37 36 35 37 41 41 41 41 39 36 38 42 42 41 41 41 41 40 39 39 40 41 41 39 39 39 39 40 40 40 39 39 40 41 42 43 43 44 46 47 48 48 48 47 46 46 46 47 47 47 47 47 47 49 50 51 52 54 55 57 58 59 60 61 61 63 64 65 67 68 69 70 72 73 74 75
39 43 44 45 46 46 45 44 44 42 39 35 35 39 42 43 42 44 41 36 37 43 44 42 42 42 41 41 40 40 40 40 41 41 41 41 41 41 41 41 41 41 41 43 44 44 45 45 46 47 48 48 49 50 49 48 49 49 49 49 49 49 50 50 51 53 54 56 58 59 60 61 62 64 65 66 67 68 69 70 71 73 74 76 77 77
40 42 45 47 47 47 48 47 46 44 40 38 40 42 44 43 41 43 42 36 36 43 45 43 42 42 42 42 41 41 40 40 41 42 43 42 42 42 41 41 42 43 43 44 45 46 47 47 47 48 49 48 49 50 50 50 50 50 50 51 50 50 50 51 52 54 56 58 59 60 61 63 64 65 66 68 69 70 71 72 73 75 77 78 79 79
40 42 45 48 49 49 50 50 49 46 41 42 46 47 47 46 43 44 44 39 38 44 45 43 43 42 43 43 41 40 40 39 40 41 43 42 41 42 42 41 41 42 44 45 46 47 48 48 49 49 49 49 49 49 50 50 50 50 49 50 50 50 51 52 54 57 59 60 61 62 63 65 66 66 67 68 69 70 71 73 75 77 79 79 80 81
41 42 44 48 50 51 52 54 53 48 42 44 47 48 48 48 46 46 46 42 42 46 46 44 44 44 43 42 41 40 40 39 38 40 43 43 42 42 43 42 41 42 43 45 46 47 48 49 49 49 49 48 48 48 48 49 49 49 48 48 49 50 52 54 56 59 61 62 63 64 65 66 66 67 67 68 69 71 72 75 77 78 79 80 82 83
43 43 45 48 51 53 54 56 55 49 44 45 48 48 47 48 46 46 46 45 46 47 46 45 45 44 43 43 42 41 41 40 40 40 42 43 43 43 43 42 42 42 43 44 45 47 48 48 49 49 48 48 47 47 47 47 47 47 47 47 49 51 53 56 59 61 63 64 65 66 66 66 66 66 67 68 70 72 74 76 77 79 80 82 83 85
46 44 46 49 52 55 57 59 56 50 45 47 48 48 48 48 47 47 47 47 48 48 47 46 44 42 43 43 43 42 41 42 42 42 42 43 43 44 44 43 42 42 42 42 43 44 45 46 47 47 47 47 46 45 45 45 44 45 46 48 51 53 56 59 61 63 64 65 66 65 65 66 66 67 68 70 72 74 76 77 79 80 82 84 85 86
49 46 48 50 53 57 60 60 57 51 47 48 49 49 49 49 49 48 48 48 48 48 47 46 43 42 42 43 43 42 42 42 43 43 43 43 44 44 44 44 44 42 41 41 41 41 42 42 43 43 43 43 42 42 42 43 43 45 47 50 53 55 58 61 62 64 65 65 65 65 66 67 68 69 71 72 74 75 77 79 81 82 84 86 87 89
52 49 49 52 55 59 61 61 58 53 50 50 50 49 50 50 49 49 49 49 48 48 47 46 44 42 43 44 44 43 43 43 44 44 44 44 44 44 45 45 44 42 41 40 39 39 39 39 38 38 38 39 39 40 41 43 44 47 49 52 54 57 60 61 62 62 63 64 65 67 68 69 70 71 73 74 76 77 79 81 83 84 86 88 90 92
56 51 52 54 57 60 62 62 57 52 51 50 50 51 53 52 49 49 49 48 48 47 47 46 44 43 44 44 44 44 44 44 44 44 44 44 43 44 44 44 44 42 40 38 37 36 36 36 35 35 35 37 38 40 42 44 46 49 51 54 56 58 59 59 60 62 64 66 67 68 69 70 71 73 74 76 78 80 81 83 85 86 88 90 93 96
60 55 55 57 58 60 62 62 56 51 51 51 51 53 54 52 49 48 48 47 47 46 46 45 43 43 44 45 44 45 45 45 44 44 44 44 43 43 43 43 42 41 39 37 35 35 35 34 34 35 36 38 41 43 45 47 50 51 53 55 56 57 58 59 62 65 66 67 68 69 70 71 73 75 77 78 80 82 83 85 86 87 90 93 96 98
64 58 57 56 56 58 60 59 54 52 53 54 54 53 53 51 49 48 48 47 46 46 45 44 43 43 43 44 44 45 46 45 45 45 44 44 43 42 42 42 40 39 38 36 36 36 36 37 37 39 41 43 45 47 49 51 53 53 54 55 56 58 60 64 66 67 67 68 68 69 71 73 75 77 79 80 82 83 85 86 88 90 93 95 98 100
62 57 56 54 54 58 59 56 54 55 56 56 54 53 53 51 48 47 48 47 47 46 44 42 43 43 43 44 46 47 46 45 45 45 44 43 42 41 41 40 39 38 37 36 37 38 39 40 42 43 46 47 49 51 52 53 54 54 54 56 59 62 65 66 66 67 67 68 69 71 72 74 76 78 80 82 83 84 86 88 91 93 95 98 100 103
57 53 52 51 54 58 59 56 55 57 57 56 54 52 51 48 46 46 48 48 47 46 44 43 44 44 45 46 47 47 46 45 44 44 42 41 40 39 39 38 37 37 37 38 40 41 43 44 46 47 49 50 51 52 52 52 53 54 57 59 62 65 66 66 66 67 67 69 71 72 74 76 78 80 81 83 84 86 88 91 93 96 98 100 103 106
54 50 50 53 56 56 54 53 54 55 53 52 52 50 47 45 44 45 47 47 47 46 44 44 46 46 47 47 47 47 46 43 41 41 39 38 38 37 37 37 37 38 40 42 44 46 47 48 48 49 49 49 50 50 51 52 54 57 60 62 64 65 65 65 66 68 69 71 73 75 77 78 80 82 84 85 87 88 90 93 96 98 100 102 105 108
55 50 50 55 56 52 49 51 54 54 49 47 48 48 44 43 44 45 46 47 46 45 46 47 47 48 49 48 47 46 43 39 37 38 38 38 38 38 38 39 40 42 45 47 48 48 48 48 48 48 48 48 49 50 52 54 57 60 62 64 65 65 66 67 68 70 72 74 76 77 79 81 82 84 86 88 89 91 93 95 97 100 103 105 107 109
55 50 51 56 56 52 50 52 55 55 50 44 44 44 42 43 45 46 46 47 46 46 48 49 49 49 49 47 44 42 38 36 37 40 41 41 41 41 42 44 45 46 47 47 47 47 47 48 48 48 49 49 51 52 55 57 59 61 63 65 66 66 67 69 71 73 75 76 78 80 81 83 85 86 88 90 92 94 96 97 98 101 103 106 109 110
Wind_Direction
32 31 31 33 33 33 32 31 31 28 23 22 23 27 29 28 27 27 27 25 20 13 3 349 322 282 258 248 242 238 238 239 237 235 233 232 232 233 233 233 234 235 237 238 238 237 237 239 241 242 242 243 244 246 247 247 247 246 244 243 243 244 245 245 244 246 250 251 249 247 248 247 242 238 244 250 247 240 237 239 239 238 239 241 241 241
31 30 32 34 33 33 33 33 33 31 27 25 23 25 27 26 26 26 26 26 22 14 4 355 344 319 276 256 247 240 237 237 237 236 234 233 232 233 233 233 233 234 236 237 238 238 238 239 241 242 243 243 244 245 246 247 248 248 246 245 244 244 245 246 246 248 250 253 253 251 248 247 243 239 240 245 247 245 242 241 242 242 243 246 249 248
29 30 34 35 34 34 34 33 34 32 30 28 26 24 22 22 24 25 26 27 25 20 14 7 358 341 303 262 250 244 239 236 236 235 234 233 232 232 233 233 233 234 235 237 238 239 239 239 240 242 243 244 244 245 246 248 248 249 249 247 246 245 246 246 247 250 252 254 256 255 252 250 250 247 243 242 243 244 245 247 248 245 243 244 248 250
28 31 33 32 33 34 34 34 33 32 31 29 28 26 22 19 20 24 26 26 26 26 24 23 17 1 343 301 255 242 238 235 236 236 233 233 233 232 233 233 234 234 235 236 237 238 239 239 240 241 242 243 245 245 246 247 249 250 250 250 249 248 247 248 249 251 253 255 257 257 255 255 256 256 254 252 250 248 249 251 253 251 248 245 245 247
28 30 31 31 32 33 33 33 32 32 32 31 30 29 25 21 20 23 26 24 24 27 29 32 30 23 19 10 328 243 228 223 228 233 233 231 231 231 232 233 234 234 235 236 237 238 239 239 239 240 241 243 244 245 246 247 248 250 250 250 250 249 249 249 250 252 253 255 256 257 257 257 258 259 259 257 254 255 257 257 257 256 255 253 253 252
27 28 28 30 31 31 32 33 32 31 31 32 31 31 29 26 24 24 25 25 24 25 28 32 35 34 33 33 32 31 216 216 219 224 233 236 229 228 230 232 234 234 234 235 236 237 238 239 239 240 240 242 243 245 246 247 248 248 249 250 250 250 250 250 251 252 253 254 255 256 257 258 260 261 261 259 256 258 262 261 260 259 257 256 258 260
28 28 27 27 28 29 30 30 31 31 31 31 31 31 31 29 28 27 26 26 26 26 26 28 33 36 34 34 39 48 66 187 197 191 221 241 233 225 227 229 232 234 234 235 235 236 238 238 239 239 240 241 242 244 245 246 247 248 249 250 251 251 251 252 252 253 254 255 255 255 257 258 259 261 262 263 263 262 262 260 259 261 260 258 258 259
28 28 27 25 25 26 27 27 29 30 31 31 30 31 31 31 30 30 29 29 27 26 26 26 28 34 36 36 36 42 53 85 166 182 208 226 216 213 222 226 230 233 235 236 236 237 238 239 240 240 241 241 243 244 245 247 248 249 250 251 252 252 253 253 254 254 255 256 256 256 257 258 259 260 261 264 266 264 262 261 262 264 265 263 261 260
28 28 27 26 25 24 24 24 25 27 29 30 30 29 30 31 30 30 30 30 29 27 25 25 27 31 37 38 39 40 44 54 94 170 202 210 199 196 215 225 229 233 236 238 239 240 240 240 241 241 242 242 243 244 245 247 248 249 251 252 253 254 254 255 255 256 257 257 257 257 258 259 259 260 260 262 264 265 263 263 263 265 266 267 267 265
28 28 27 26 25 24 22 22 22 23 25 27 27 27 28 29 30 31 31 30 30 29 27 26 26 29 33 35 38 42 46 52 58 72 125 194 205 206 213 223 228 233 236 238 240 241 242 242 242 243 243 244 244 244 245 246 248 250 251 252 253 255 256 256 256 257 257 258 259 258 258 259 260 261 261 261 262 264 265 265 265 264 265 267 268 270
25 26 26 25 24 23 22 21 20 19 21 23 24 24 25 26 28 30 31 30 30 30 29 29 27 27 28 30 33 37 45 53 57 59 64 73 180 212 220 227 230 237 241 242 242 242 244 245 245 245 245 246 246 246 246 246 247 249 250 252 253 254 255 256 257 257 258 259 260 260 259 259 260 261 262 262 262 264 265 266 266 266 266 267 269 271
20 22 23 23 22 21 21 21 20 18 18 18 20 21 21 23 26 28 30 30 30 30 30 30 30 28 27 27 29 31 35 41 47 49 50 52 52 216 228 235 242 248 251 252 250 249 248 248 248 248 247 247 247 247 247 247 248 249 250 251 252 254 255 256 257 258 258 259 260 261 261 260 260 260 262 262 262 263 264 266 267 267 268 268 269 270
16 16 17 19 20 20 19 19 18 17 17 16 16 17 18 18 21 24 27 28 28 29 30 30 30 30 29 28 28 29 29 29 30 27 22 20 15 356 298 265 261 259 257 258 258 258 256 253 251 250 249 248 248 248 248 248 248 249 250 251 252 253 255 256 257 258 258 259 260 261 261 262 261 260 261 262 263 263 264 265 266 267 268 269 270 271
12 12 12 14 17 18 18 17 16 16 16 15 14 13 13 13 16 18 21 23 25 26 27 29 29 30 30 30 29 29 30 29 25 19 13 7 1 353 331 308 293 283 275 270 269 267 264 259 257 256 254 252 251 250 250 249 249 249 249 250 251 252 254 255 257 257 258 259 260 261 261 262 263 262 262 261 262 263 264 265 266 267 268 269 270 270
6 7 8 9 10 12 14 15 14 13 14 14 13 12 11 9 10 12 13 16 18 20 22 25 27 28 29 29 29 29 30 31 30 26 20 11 1 351 333 313 297 288 283 279 276 273 268 262 259 261 262 260 258 256 254 253 252 252 252 251 252 252 253 255 256 257 258 259 259 260 261 262 263 264 264 263 262 262 263 264 265 266 267 267 268 269
0 1 2 3 3 4 7 8 9 10 12 12 11 12 11 9 7 8 8 9 11 13 16 20 22 24 26 27 28 28 28 28 30 31 30 27 21 9 350 326 303 288 279 274 271 268 266 262 260 260 261 262 262 261 260 259 257 256 255 255 255 255 255 256 257 257 259 259 260 260 261 262 262 263 264 264 264 263 262 262 263 264 265 266 266 267
354 355 356 358 358 358 359 0 2 4 6 7 7 8 9 8 7 7 6 6 7 7 9 12 15 18 20 22 23 25 26 25 25 26 27 29 31 28 22 10 348 322 295 279 270 265 263 262 260 258 258 259 259 260 261 262 262 261 260 259 259 259 259 259 259 260 260 261 261 261 261 262 262 262 263 263 264 264 263 262 262 262 263 264 265 266
347 348 349 351 352 353 353 353 354 355 358 0 2 3 3 5 5 5 5 5 5 4 4 3 5 10 12 14 16 17 19 21 22 21 21 21 23 24 25 24 19 12 355 322 291 273 266 264 263 261 259 258 257 258 259 261 264 265 266 265 264 263 263 263 262 263 263 263 264 264 264 264 263 264 264 264 264 264 264 264 263 263 262 263 264 265
340 342 342 343 345 346 347 347 348 349 350 352 354 356 357 359 360 1 2 3 4 3 3 360 357 1 2 2 6 7 7 10 12 14 15 14 15 15 16 16 14 14 13 7 353 323 288 272 268 267 264 262 261 260 260 261 262 264 266 267 268 268 267 267 267 267 267 267 268 268 268 267 267 267 266 266 266 266 266 266 266 265 265 264 264 265
334 336 337 337 338 339 340 341 342 343 343 344 345 348 351 352 353 354 355 357 359 360 1 359 353 352 355 353 354 355 355 357 358 1 4 4 5 5 5 5 4 1 1 2 0 356 344 317 295 285 276 270 266 263 261 262 262 264 265 266 268 270 271 271 271 271 272 272 273 273 274 273 272 271 270 270 269 269 269 269 269 269 268 268 267 267
330 331 332 332 333 334 335 336 337 338 338 339 339 340 343 344 345 348 348 350 353 354 355 356 351 348 349 347 346 346 343 343 344 344 348 350 351 352 352 351 351 350 349 347 346 344 341 335 328 320 311 300 288 278 271 268 267 267 268 268 268 269 271 272 273 274 275 276 277 278 278 279 278 278 276 275 274 273 272 272 271 271 271 271 271 271
328 329 330 330 329 329 330 331 332 333 334 334 335 335 335 336 338 340 341 342 346 348 349 349 348 348 345 339 338 340 336 335 334 330 331 334 334 335 338 338 337 336 336 334 333 331 328 324 320 317 313 308 304 299 292 287 282 279 277 277 275 274 274 274 274 275 276 277 278 279 280 281 281 281 281 279 278 277 276 276 275 275 274 274 274 274
327 327 328 328 329 328 328 329 329 331 331 330 330 331 330 331 332 333 334 335 337 340 342 342 343 345 340 333 333 335 332 329 327 324 320 319 320 320 320 322 323 323 323 321 320 318 316 313 311 309 306 304 301 297 294 290 286 284 282 281 280 279 279 278 278 279 279 279 279 279 280 281 281 282 282 281 281 280 279 278 278 278 278 277 277 277
328 328 327 328 328 327 327 328 327 327 329 327 326 327 326 327 327 327 329 329 329 333 336 335 336 337 331 326 330 334 333 327 321 319 316 312 310 309 308 308 309 309 311 311 310 308 305 304 302 301 300 299 299 297 295 293 289 286 284 283 282 281 279 279 279 280 280 280 281 281 281 281 281 282 281 281 281 281 280 279 279 279 279 279 279 279
331 331 330 331 332 331 329 328 326 326 327 326 326 325 324 324 324 324 325 325 323 326 330 329 330 333 324 319 324 332 336 334 322 314 311 309 306 303 300 299 297 298 300 300 302 302 301 300 299 298 297 295 294 293 292 292 291 289 287 286 285 284 283 282 282 281 281 281 282 282 283 283 283 283 283 283 283 283 282 282 281 281 280 280 280 280
332 333 332 331 334 335 334 331 330 331 331 329 328 326 323 321 322 323 324 322 319 322 326 323 322 329 320 312 317 325 329 331 323 310 305 303 302 300 296 294 293 294 294 293 294 294 295 297 297 296 296 294 292 291 289 288 287 287 287 287 285 285 285 285 285 285 285 285 285 285 285 286 286 286 286 286 286 286 285 285 284 284 284 283 282 282
333 335 332 331 333 334 333 332 330 333 335 332 329 326 322 319 320 322 322 320 316 319 325 319 315 321 316 307 311 318 319 320 319 312 305 299 296 295 293 292 293 293 291 291 291 290 290 291 293 293 293 292 290 289 288 288 287 286 286 286 286 285 285 285 285 285 285 285 285 285 285 286 286 286 285 285 285 285 285 284 284 284 283 283 282 282
333 333 332 332 333 332 332 331 329 331 335 335 331 325 319 317 320 322 320 317 314 317 323 316 311 317 314 304 306 311 311 312 313 312 309 302 294 290 290 291 292 291 290 290 290 290 289 289 289 290 291 290 290 290 289 288 288 288 287 287 286 286 285 285 285 285 286 286 287 287 287 287 287 286 286 286 285 285 285 285 284 284 283 283 282 282
333 332 331 331 333 332 330 329 329 329 332 336 332 323 317 318 320 320 318 315 314 317 320 313 310 315 311 303 305 308 306 306 307 307 308 306 300 295 291 290 289 288 287 286 287 287 288 288 287 287 286 286 288 289 290 290 289 288 288 288 288 287 287 287 287 287 287 288 288 288 289 289 288 288 288 287 287 287 287 286 286 286 285 285 284 283
333 333 331 330 333 333 327 327 330 329 331 336 331 319 317 319 318 319 319 315 315 317 316 311 311 311 305 303 306 307 305 305 304 302 301 301 302 301 297 291 287 284 282 282 283 284 284 284 284 284 282 281 282 285 287 287 287 287 288 288 288 288 288 288 288 288 288 288 288 288 288 288 288 288 288 288 288 288 288 288 288 288 287 287 286 285
333 332 330 329 333 335 329 327 330 331 334 336 329 319 318 317 314 316 318 314 314 316 314 312 312 309 304 304 306 304 303 304 304 302 299 296 294 295 296 294 290 286 284 283 282 282 283 282 281 279 278 278 278 280 281 282 283 284 285 285 285 287 287 288 288 287 287 287 287 287 287 287 287 286 286 287 287 287 288 288 288 288 288 289 288 288
331 331 330 328 332 336 332 328 331 335 338 335 329 323 319 315 313 315 317 313 311 314 315 315 314 312 308 307 306 304 303 303 303 303 302 298 292 287 287 290 292 291 290 288 286 285 284 282 280 278 277 276 276 276 276 277 278 280 281 281 283 285 286 287 288 287 288 288 287 287 287 287 286 286 286 286 286 287 287 288 288 288 289 290 290 290
330 330 330 329 330 333 333 330 331 337 340 338 332 324 317 315 315 315 315 313 311 312 315 316 316 315 313 313 311 308 307 305 304 302 302 300 296 289 285 284 287 291 292 290 288 287 285 282 280 279 278 277 275 274 274 274 274 275 276 278 280 283 285 286 287 288 288 288 289 288 288 288 287 287 287 287 286 286 287 288 288 289 290 291 291 291
329 329 331 330 329 331 332 329 329 336 341 339 332 321 315 317 318 316 316 315 312 312 315 316 317 317 316 316 316 313 311 309 308 305 302 299 297 294 290 286 285 287 288 287 286 286 285 284 283 281 279 277 276 274 273 273 273 273 274 276 279 281 283 285 286 287 287 287 288 288 288 288 288 288 288 287 287 287 288 288 289 290 290 291 292 292
327 327 329 329 328 329 329 326 328 333 339 337 328 319 316 319 321 321 322 318 312 313 316 317 318 318 318 317 317 315 313 311 309 308 304 299 296 294 293 290 288 286 285 284 284 284 285 285 285 283 281 278 277 275 274 274 274 274 275 276 278 280 282 284 286 287 287 287 288 288 288 289 289 289 289 288 288 288 288 289 289 290 290 291 292 291
323 324 325 324 325 326 325 324 325 331 336 333 322 316 317 320 323 324 324 319 310 312 318 319 319 319 318 317 316 315 314 313 311 310 307 304 301 297 294 292 290 288 286 284 284 283 284 284 285 285 283 280 278 277 276 275 275 276 277 278 279 281 283 284 286 287 287 288 288 288 289 289 289 289 289 289 289 289 289 289 289 290 290 291 291 291
319 320 320 320 322 322 321 320 321 327 333 326 319 319 320 322 322 321 323 321 311 310 316 319 319 319 317 316 315 315 314 314 312 311 308 305 303 299 296 292 289 287 286 285 284 284 283 283 284 284 284 282 280 278 278 278 277 278 278 279 281 282 283 285 286 287 288 288 289 290 291 291 290 290 289 289 289 289 289 289 289 290 290 290 290 290
317 317 316 317 319 319 318 317 318 325 330 323 320 323 323 322 322 321 323 323 313 312 317 319 318 318 316 315 315 314 314 314 312 310 307 304 301 297 293 291 288 286 284 283 282 282 282 282 282 283 283 283 282 280 279 279 279 280 280 281 282 283 284 285 287 288 288 289 291 292 292 292 291 291 290 290 290 290 289 290 290 290 290 290 290 290
316 317 316 317 318 317 316 315 315 322 325 321 320 323 321 320 321 321 322 321 315 316 319 318 317 316 315 316 316 315 314 313 313 312 309 307 305 300 296 293 289 285 282 280 279 279 280 281 281 282 283 283 282 281 280 280 280 282 283 283 284 284 285 287 288 288 290 292 293 293 293 292 292 291 291 290 290 290 290 290 290 290 290 290 290 290
314 316 315 317 317 316 314 313 315 320 321 318 319 320 318 318 319 319 319 317 316 318 319 317 316 316 316 316 316 315 314 314 314 312 309 309 310 308 306 302 296 289 284 280 278 278 279 280 282 283 283 283 282 282 281 281 282 283 284 284 284 285 286 288 289 290 292 294 294 294 293 293 292 292 291 291 290 290 290 290 290 290 290 291 291 291
311 314 314 316 316 314 312 313 316 319 318 316 317 317 316 317 318 317 315 313 314 316 316 315 315 315 314 315 314 314 314 314 313 312 310 311 312 313 312 310 306 299 292 286 282 281 280 282 283 284 284 284 284 283 283 283 284 285 285 285 285 287 289 290 292 293 294 294 294 294 293 293 292 292 291 291 291 291 291 291 291 291 292 292 292 292
307 311 313 313 313 311 310 312 315 317 315 313 314 313 313 315 316 314 312 311 312 313 313 313 313 313 313 312 312 312 313 313 312 311 312 313 314 314 314 313 312 308 302 295 291 287 286 286 287 287 287 286 286 285 284 285 285 286 286 287 289 291 292 293 294 294 294 294 295 294 294 293 293 292 292 291 291 291 292 292 293 293 294 294 294 294
305 309 312 311 309 309 310 311 313 314 312 310 310 309 310 313 314 311 310 310 311 312 312 311 311 311 311 310 310 311 312 311 311 311 312 313 313 313 313 313 313 312 309 304 299 295 293 292 291 289 288 286 286 285 285 285 286 287 289 291 293 294 294 294 295 295 296 296 296 295 294 294 293 293 292 292 292 293 294 294 295 295 295 296 296 297
304 308 310 309 307 307 308 309 311 311 308 306 306 306 308 310 311 309 308 310 311 311 310 310 310 310 309 307 308 309 310 310 310 310 310 311 311 312 312 312 312 311 309 306 302 299 296 294 292 290 288 287 286 286 287 288 290 292 294 295 295 295 296 297 297 297 297 297 296 296 295 295 294 294 294 294 295 295 296 296 297 297 297 298 299 299
303 307 308 307 307 307 306 306 308 307 303 301 303 304 306 308 308 307 307 308 309 309 309 309 309 307 306 305 306 307 309 309 309 308 308 309 309 310 310 311 310 308 307 304 301 298 296 295 293 292 292 291 291 292 293 295 296 297 297 297 297 297 298 299 299 299 298 298 297 297 296 295 295 295 296 296 297 298 298 298 298 299 300 300 300 300
303 306 306 306 307 305 302 303 304 302 299 299 302 303 304 305 306 304 305 307 308 308 308 308 306 304 303 304 305 307 308 308 307 307 307 308 308 309 309 309 309 307 305 303 300 298 296 296 296 296 296 297 298 298 299 299 299 299 299 299 299 299 300 300 300 300 300 299 298 298 297 297 297 297 298 299 299 300 300 300 301 301 301 302 302 302
303 306 306 307 304 300 300 303 302 298 297 299 301 302 303 303 304 303 303 306 307 307 307 306 303 302 302 304 305 306 306 306 306 306 307 307 308 308 308 308 308 307 306 305 303 301 300 300 300 300 300 300 301 301 301 301 301 300 300 300 300 301 302 302 302 301 300 300 299 298 298 298 299 299 300 301 301 301 302 302 302 303 303 303 303 303
306 309 308 306 300 298 301 304 300 297 297 299 300 300 301 301 301 301 303 305 306 306 306 303 300 300 303 304 305 304 304 304 305 305 306 307 308 307 306 307 307 307 308 308 307 306 305 304 302 301 301 301 301 301 301 300 300 300 300 301 303 303 303 303 302 302 301 300 300 300 300 300 301 301 302 302 302 303 303 303 304 304 305 305 305 305
310 312 308 302 299 300 303 303 298 297 300 301 299 299 300 300 299 300 303 304 304 304 304 301 300 301 303 303 302 301 302 303 304 306 309 310 309 308 307 306 306 306 307 308 307 306 305 304 303 302 302 301 301 300 300 300 300 301 302 303 304 304 304 303 303 302 302 301 301 301 301 302 302 302 303 303 303 304 304 305 305 305 306 306 306 306
312 312 307 300 299 301 301 299 297 298 302 304 301 300 299 298 298 300 302 302 303 303 302 300 301 303 302 301 300 300 301 303 305 308 311 311 310 308 307 306 305 306 306 306 306 306 306 306 305 305 304 303 301 301 300 300 301 302 303 304 305 305 305 304 304 303 303 302 302 302 303 303 303 303 304 304 304 305 305 306 306 307 307 307 306 306
313 312 306 299 297 298 299 298 296 297 302 306 302 299 297 297 299 301 303 303 303 302 300 301 303 303 301 300 300 300 301 304 308 310 310 309 308 307 306 305 304 305 306 306 306 307 308 308 308 307 305 304 302 301 301 301 302 303 304 305 306 306 305 305 304 304 303 303 304 304 304 304 304 304 305 305 306 306 306 306 307 307 307 307 307 307
Height
5744 5743 5741 5736 5733 5729 5725 5721 5717 5714 5711 5708 5706 5703 5700 5697 5693 5690 5687 5684 5681 5679 5676 5673 5671 5670 5669 5669 5671 5675 5679 5684 5689 5695 5699 5703 5706 5709 5713 5717 5719 5722 5725 5728 5731 5735 5738 5740 5742 5745 5748 5751 5753 5755 5757 5759 5761 5763 5766 5769 5770 5771 5773 5774 5775 5774 5774 5775 5776 5777 5779 5780 5782 5783 5782 5782 5785 5786 5787 5789 5790 5791 5791 5792 5792 5793
5747 5747 5742 5737 5734 5730 5727 5722 5717 5715 5712 5709 5707 5704 5701 5698 5694 5691 5688 5685 5682 5679 5675 5672 5669 5667 5666 5666 5667 5670 5674 5678 5683 5688 5693 5697 5701 5704 5707 5711 5714 5717 5720 5722 5725 5729 5733 5736 5738 5741 5743 5745 5748 5750 5752 5753 5755 5758 5761 5764 5766 5767 5768 5769 5770 5771 5771 5771 5771 5772 5773 5774 5776 5778 5779 5779 5780 5782 5783 5784 5785 5787 5788 5788 5789 5790
5751 5748 5742 5738 5736 5731 5727 5723 5719 5716 5713 5710 5707 5704 5702 5699 5696 5693 5689 5685 5682 5679 5675 5671 5668 5665 5663 5663 5664 5666 5670 5674 5677 5682 5687 5692 5696 5700 5702 5705 5709 5712 5715 5718 5721 5725 5729 5732 5734 5736 5738 5740 5743 5745 5747 5749 5751 5753 5756 5758 5761 5762 5763 5764 5765 5766 5767 5766 5767 5768 5769 5769 5771 5773 5774 5775 5776 5778 5778 5779 5780 5781 5782 5784 5785 5786
5751 5746 5741 5739 5735 5731 5727 5724 5720 5717 5714 5712 5708 5705 5702 5700 5697 5694 5690 5686 5683 5680 5675 5672 5669 5666 5663 5662 5662 5664 5667 5671 5673 5677 5682 5687 5691 5695 5698 5701 5704 5707 5710 5713 5716 5720 5723 5726 5729 5731 5733 5736 5737 5739 5742 5744 5746 5748 5751 5753 5755 5758 5759 5760 5761 5762 5762 5763 5763 5764 5765 5765 5766 5767 5770 5772 5772 5773 5773 5773 5774 5775 5776 5777 5779 5781
5750 5745 5742 5739 5735 5731 5728 5725 5722 5719 5717 5713 5710 5707 5703 5701 5698 5694 5691 5688 5685 5681 5677 5674 5671 5668 5665 5663 5663 5663 5665 5668 5671 5674 5679 5683 5687 5690 5693 5696 5699 5702 5705 5708 5712 5715 5717 5720 5723 5726 5728 5731 5732 5734 5737 5739 5741 5743 5745 5748 5750 5752 5754 5755 5756 5757 5759 5760 5760 5760 5761 5762 5762 5763 5765 5767 5768 5768 5768 5768 5769 5769 5770 5771 5772 5774
5750 5746 5742 5739 5736 5733 5730 5727 5725 5722 5719 5715 5712 5709 5705 5702 5699 5695 5693 5690 5686 5683 5680 5677 5673 5671 5669 5667 5665 5665 5665 5667 5670 5674 5678 5680 5684 5687 5690 5693 5695 5698 5701 5704 5707 5709 5712 5715 5718 5721 5724 5726 5728 5730 5732 5734 5737 5738 5740 5743 5745 5747 5748 5750 5751 5753 5754 5756 5756 5756 5757 5758 5759 5759 5760 5762 5764 5764 5764 5764 5764 5764 5765 5766 5767 5769
5751 5747 5743 5740 5737 5735 5732 5730 5727 5724 5721 5717 5714 5711 5707 5704 5700 5697 5694 5691 5687 5685 5682 5679 5677 5675 5673 5671 5669 5668 5667 5668 5670 5674 5676 5679 5682 5684 5687 5690 5692 5695 5697 5700 5702 5705 5707 5710 5713 5716 5718 5721 5723 5725 5727 5729 5732 5734 5736 5738 5740 5742 5743 5745 5747 5748 5749 5750 5752 5753 5753 5755 5755 5755 5756 5757 5759 5760 5760 5760 5760 5759 5760 5761 5762 5763
5752 5748 5745 5742 5739 5737 5735 5732 5729 5726 5723 5719 5716 5713 5709 5706 5703 5699 5695 5692 5689 5686 5684 5682 5680 5678 5676 5674 5673 5672 5671 5670 5671 5674 5676 5679 5681 5683 5685 5687 5690 5692 5694 5696 5699 5701 5704 5706 5708 5711 5714 5717 5719 5721 5723 5725 5727 5729 5731 5733 5735 5736 5738 5740 5742 5743 5744 5745 5747 5748 5749 5750 5751 5751 5752 5753 5753 5755 5755 5755 5755 5755 5756 5757 5757 5758
5754 5750 5748 5745 5742 5740 5737 5734 5731 5727 5724 5721 5718 5715 5712 5708 5705 5701 5697 5693 5691 5688 5686 5684 5683 5681 5679 5678 5677 5676 5675 5674 5674 5675 5677 5679 5681 5682 5684 5686 5688 5690 5692 5694 5696 5698 5701 5703 5705 5707 5710 5713 5715 5717 5719 5721 5723 5725 5727 5728 5730 5731 5733 5735 5737 5738 5738 5739 5741 5743 5744 5744 5745 5746 5748 5749 5749 5749 5750 5750 5751 5751 5751 5751 5752 5753
5756 5753 5751 5748 5745 5742 5739 5735 5732 5728 5725 5722 5719 5716 5713 5710 5706 5702 5698 5696 5693 5691 5689 5687 5685 5684 5683 5682 5680 5679 5678 5678 5678 5678 5679 5680 5682 5683 5684 5686 5688 5689 5691 5692 5694 5696 5697 5699 5702 5704 5706 5709 5711 5713 5715 5717 5718 5720 5721 5723 5725 5726 5728 5729 5731 5732 5733 5734 5735 5737 5738 5739 5739 5740 5742 5743 5744 5744 5744 5745 5746 5746 5746 5746 5747 5747
5757 5755 5752 5750 5747 5744 5740 5737 5733 5730 5727 5724 5721 5717 5715 5711 5708 5704 5701 5699 5697 5695 5692 5690 5688 5687 5685 5684 5684 5683 5682 5681 5681 5681 5682 5682 5683 5685 5686 5687 5688 5690 5691 5692 5693 5694 5695 5697 5699 5701 5703 5705 5707 5708 5710 5712 5714 5715 5716 5718 5719 5720 5722 5723 5724 5726 5727 5728 5728 5730 5732 5733 5734 5734 5735 5737 5738 5738 5739 5739 5740 5740 5741 5742 5742 5742
5757 5755 5753 5750 5748 5745 5742 5739 5736 5732 5729 5725 5722 5719 5716 5713 5710 5707 5705 5703 5701 5698 5696 5694 5692 5690 5688 5687 5686 5685 5684 5684 5684 5684 5684 5685 5685 5686 5687 5687 5688 5689 5690 5691 5692 5693 5693 5694 5696 5698 5700 5701 5702 5704 5706 5707 5709 5710 5711 5712 5713 5714 5716 5717 5718 5720 5721 5722 5723 5723 5724 5726 5727 5729 5729 5730 5732 5733 5733 5733 5734 5735 5735 5736 5737 5737
5757 5755 5752 5750 5748 5745 5743 5740 5737 5734 5731 5727 5724 5721 5718 5716 5713 5711 5708 5706 5704 5701 5699 5697 5695 5693 5691 5689 5688 5687 5686 5686 5686 5686 5686 5686 5687 5687 5687 5688 5688 5689 5690 5690 5691 5691 5692 5692 5693 5695 5696 5697 5698 5700 5701 5702 5704 5705 5706 5707 5708 5709 5710 5711 5712 5714 5715 5716 5717 5717 5718 5719 5720 5722 5723 5724 5725 5727 5728 5728 5728 5729 5729 5729 5730 5731
5758 5755 5752 5750 5747 5745 5742 5740 5737 5734 5732 5729 5726 5722 5720 5718 5715 5713 5710 5708 5706 5704 5702 5700 5698 5696 5694 5692 5691 5689 5688 5687 5687 5687 5687 5687 5687 5687 5688 5688 5688 5688 5689 5689 5690 5690 5690 5691 5691 5692 5693 5694 5695 5696 5697 5698 5699 5700 5701 5702 5703 5704 5704 5705 5706 5707 5709 5710 5711 5711 5712 5712 5713 5714 5716 5718 5719 5720 5721 5722 5723 5723 5723 5723 5724 5724
5758 5756 5753 5750 5747 5745 5743 5740 5738 5735 5732 5730 5727 5724 5721 5719 5717 5714 5712 5710 5708 5706 5704 5702 5700 5699 5697 5695 5694 5692 5691 5690 5689 5688 5688 5688 5687 5687 5687 5687 5688 5688 5688 5688 5688 5689 5689 5689 5689 5690 5690 5691 5692 5693 5693 5694 5695 5696 5696 5697 5698 5699 5699 5700 5700 5701 5703 5704 5705 5706 5706 5707 5707 5707 5708 5710 5712 5713 5714 5715 5716 5716 5717 5717 5717 5717
5759 5756 5754 5751 5749 5746 5744 5741 5739 5736 5734 5731 5729 5726 5723 5721 5719 5717 5714 5712 5711 5709 5707 5704 5702 5701 5699 5697 5696 5695 5693 5692 5691 5690 5690 5689 5688 5688 5687 5687 5687 5687 5687 5687 5687 5687 5687 5687 5688 5688 5688 5689 5689 5690 5690 5690 5691 5691 5692 5693 5693 5694 5695 5695 5696 5696 5697 5698 5699 5700 5701 5701 5701 5702 5702 5703 5704 5705 5707 5708 5709 5709 5709 5709 5709 5709
5759 5756 5754 5752 5750 5747 5744 5742 5739 5737 5734 5732 5729 5727 5725 5723 5721 5719 5717 5714 5712 5710 5708 5706 5704 5702 5701 5699 5698 5697 5696 5694 5693 5692 5691 5690 5689 5689 5688 5687 5686 5686 5685 5685 5685 5685 5685 5685 5685 5685 5686 5686 5687 5687 5687 5687 5687 5687 5688 5688 5689 5689 5690 5691 5691 5691 5692 5693 5693 5694 5695 5695 5695 5696 5696 5696 5697 5697 5698 5699 5701 5701 5702 5702 5702 5702
5758 5756 5754 5751 5749 5747 5745 5742 5740 5737 5735 5732 5730 5728 5726 5724 5722 5720 5718 5716 5713 5711 5709 5707 5705 5704 5702 5701 5699 5698 5697 5696 5695 5694 5693 5692 5691 5690 5689 5688 5687 5686 5685 5685 5684 5684 5683 5683 5683 5683 5683 5683 5683 5684 5684 5684 5684 5684 5684 5684 5685 5685 5686 5686 5686 5687 5687 5687 5687 5688 5689 5689 5689 5690 5690 5690 5690 5690 5690 5691 5691 5692 5693 5693 5694 5693
5757 5755 5753 5751 5748 5746 5744 5742 5740 5737 5735 5733 5730 5728 5726 5724 5722 5720 5718 5716 5714 5713 5711 5708 5706 5704 5703 5701 5700 5699 5697 5696 5695 5694 5693 5693 5692 5691 5690 5689 5688 5687 5686 5685 5684 5684 5683 5682 5681 5681 5681 5680 5680 5680 5681 5681 5681 5681 5681 5681 5681 5681 5681 5682 5682 5682 5682 5682 5682 5683 5683 5683 5684 5684 5684 5684 5684 5684 5683 5683 5683 5683 5684 5684 5685 5685
5756 5754 5751 5749 5747 5745 5743 5741 5739 5737 5735 5733 5730 5728 5726 5724 5722 5720 5718 5716 5714 5712 5711 5710 5707 5704 5703 5702 5701 5699 5698 5697 5695 5694 5693 5693 5692 5691 5690 5690 5689 5688 5687 5686 5685 5684 5683 5682 5682 5681 5680 5679 5679 5678 5678 5678 5678 5677 5677 5677 5677 5677 5678 5678 5678 5678 5678 5678 5678 5678 5678 5678 5678 5679 5679 5679 5678 5678 5677 5677 5676 5676 5676 5676 5676 5677
5756 5754 5751 5748 5746 5743 5741 5739 5738 5736 5734 5732 5730 5727 5726 5724 5722 5720 5718 5716 5714 5712 5711 5710 5708 5705 5703 5702 5701 5699 5698 5697 5696 5695 5693 5692 5692 5691 5690 5690 5689 5688 5687 5686 5685 5684 5684 5683 5682 5681 5680 5679 5678 5678 5677 5676 5676 5675 5675 5675 5675 5674 5674 5674 5674 5674 5674 5674 5674 5674 5673 5673 5673 5673 5673 5673 5673 5672 5672 5671 5671 5670 5670 5669 5669 5669
5755 5753 5751 5748 5745 5742 5740 5738 5736 5734 5732 5730 5729 5726 5724 5722 5721 5719 5718 5716 5714 5712 5710 5709 5707 5706 5704 5702 5700 5699 5698 5697 5696 5695 5693 5692 5691 5690 5690 5689 5688 5687 5686 5685 5684 5684 5683 5682 5681 5681 5680 5679 5678 5677 5677 5676 5675 5674 5674 5673 5673 5672 5672 5671 5671 5671 5671 5671 5670 5670 5669 5669 5668 5668 5668 5667 5667 5667 5666 5666 5665 5664 5664 5663 5662 5662
5753 5751 5750 5748 5745 5742 5739 5737 5735 5733 5731 5729 5727 5725 5723 5720 5719 5717 5716 5715 5714 5712 5710 5708 5706 5705 5703 5701 5700 5699 5697 5696 5695 5694 5693 5692 5691 5689 5689 5687 5686 5686 5685 5684 5683 5682 5682 5681 5680 5679 5679 5678 5677 5677 5676 5675 5674 5674 5673 5672 5672 5671 5670 5670 5669 5668 5668 5668 5667 5667 5666 5666 5665 5664 5663 5662 5662 5661 5661 5660 5659 5659 5658 5657 5656 5655
5751 5748 5747 5746 5745 5742 5739 5737 5734 5732 5730 5728 5726 5724 5721 5719 5717 5715 5714 5713 5712 5711 5709 5707 5706 5703 5700 5699 5698 5698 5697 5695 5694 5693 5691 5690 5689 5688 5687 5686 5685 5684 5683 5682 5682 5681 5680 5680 5679 5678 5677 5676 5676 5675 5674 5673 5673 5672 5671 5671 5670 5670 5669 5668 5667 5667 5666 5665 5665 5664 5664 5663 5662 5661 5660 5659 5658 5657 5656 5655 5655 5654 5652 5651 5650 5649
5749 5746 5743 5742 5741 5740 5738 5736 5734 5731 5729 5727 5724 5722 5719 5717 5715 5713 5712 5710 5709 5709 5708 5706 5705 5703 5698 5696 5696 5696 5696 5695 5692 5691 5690 5688 5687 5686 5685 5684 5683 5682 5681 5680 5680 5679 5678 5677 5677 5676 5675 5674 5674 5673 5672 5671 5671 5670 5669 5668 5668 5667 5667 5666 5665 5664 5663 5662 5662 5661 5660 5660 5659 5658 5657 5656 5654 5653 5652 5651 5650 5649 5648 5647 5645 5644
5749 5746 5742 5739 5737 5736 5734 5732 5731 5730 5728 5725 5723 5719 5717 5715 5713 5711 5710 5709 5706 5705 5706 5704 5703 5702 5698 5693 5693 5693 5693 5693 5691 5689 5688 5686 5684 5683 5682 5681 5680 5680 5679 5678 5677 5676 5675 5675 5674 5673 5673 5672 5671 5670 5669 5669 5668 5667 5666 5665 5665 5664 5664 5663 5662 5661 5660 5659 5658 5657 5657 5656 5655 5654 5653 5651 5650 5649 5647 5646 5645 5644 5642 5641 5640 5639
5747 5745 5742 5739 5737 5735 5732 5730 5727 5727 5726 5724 5721 5718 5714 5711 5709 5708 5707 5706 5704 5702 5703 5701 5699 5701 5698 5692 5691 5691 5689 5689 5689 5687 5685 5684 5682 5680 5679 5678 5677 5676 5675 5674 5674 5673 5673 5672 5671 5670 5669 5668 5668 5667 5666 5666 5665 5664 5663 5662 5661 5661 5660 5660 5659 5658 5656 5655 5654 5653 5652 5651 5651 5649 5648 5647 5645 5644 5643 5641 5640 5639 5637 5636 5634 5633
5743 5743 5741 5739 5736 5734 5732 5729 5726 5724 5724 5723 5720 5717 5713 5708 5706 5705 5704 5703 5701 5699 5700 5699 5696 5697 5696 5691 5689 5689 5687 5686 5685 5683 5682 5681 5679 5677 5676 5675 5674 5673 5672 5671 5670 5669 5669 5669 5668 5666 5666 5664 5663 5663 5662 5662 5661 5660 5659 5659 5657 5657 5656 5655 5655 5654 5652 5651 5650 5649 5648 5647 5646 5645 5643 5642 5640 5638 5637 5635 5634 5632 5631 5629 5628 5626
5740 5739 5738 5738 5736 5733 5730 5728 5725 5722 5722 5721 5718 5715 5711 5707 5704 5702 5700 5699 5697 5696 5696 5694 5693 5694 5692 5687 5686 5686 5684 5683 5682 5680 5679 5677 5676 5674 5673 5672 5671 5670 5668 5667 5666 5665 5665 5664 5664 5663 5662 5660 5659 5658 5658 5657 5657 5655 5655 5654 5653 5652 5651 5650 5650 5649 5647 5646 5645 5644 5643 5641 5640 5639 5638 5636 5634 5632 5630 5629 5627 5625 5623 5621 5620 5618
5738 5735 5734 5733 5735 5733 5728 5726 5724 5720 5719 5719 5716 5712 5708 5706 5703 5700 5697 5694 5692 5692 5692 5690 5689 5690 5687 5684 5683 5682 5679 5679 5678 5677 5676 5674 5673 5671 5670 5669 5668 5666 5664 5663 5662 5661 5660 5660 5659 5658 5657 5656 5655 5654 5653 5653 5652 5651 5650 5649 5647 5646 5646 5645 5644 5643 5642 5640 5639 5638 5637 5635 5634 5633 5631 5629 5627 5625 5624 5622 5620 5618 5616 5614 5612 5609
5737 5733 5730 5728 5731 5732 5727 5724 5723 5719 5716 5715 5713 5709 5706 5703 5701 5698 5695 5691 5688 5688 5688 5686 5685 5686 5683 5680 5680 5679 5676 5675 5674 5673 5672 5672 5670 5668 5666 5665 5664 5662 5660 5659 5658 5657 5656 5655 5654 5653 5652 5651 5650 5649 5648 5647 5646 5646 5645 5643 5642 5641 5640 5639 5638 5637 5636 5634 5633 5632 5630 5629 5627 5626 5624 5622 5620 5618 5616 5615 5612 5610 5608 5605 5603 5601
5736 5732 5729 5725 5726 5728 5725 5721 5720 5719 5715 5712 5709 5705 5702 5700 5697 5696 5693 5689 5685 5684 5683 5682 5680 5680 5679 5676 5675 5674 5672 5671 5670 5668 5667 5667 5665 5664 5662 5661 5659 5657 5656 5654 5653 5651 5650 5649 5648 5647 5646 5646 5645 5644 5643 5642 5641 5640 5639 5637 5636 5636 5635 5634 5633 5631 5630 5628 5627 5625 5624 5622 5621 5619 5617 5615 5613 5611 5609 5607 5604 5601 5599 5597 5594 5592
5734 5731 5728 5724 5721 5723 5722 5718 5717 5717 5714 5710 5705 5701 5698 5696 5694 5692 5690 5687 5683 5680 5679 5677 5676 5675 5673 5672 5670 5669 5667 5667 5666 5665 5663 5662 5660 5658 5657 5656 5654 5652 5650 5648 5646 5645 5644 5643 5641 5640 5640 5640 5639 5638 5637 5636 5635 5634 5633 5632 5631 5630 5630 5628 5627 5626 5624 5622 5620 5619 5617 5615 5613 5612 5610 5608 5605 5603 5600 5598 5595 5592 5590 5588 5585 5582
5732 5728 5726 5723 5719 5719 5718 5715 5713 5714 5712 5707 5702 5698 5695 5693 5691 5689 5688 5685 5680 5676 5675 5673 5672 5671 5669 5667 5666 5664 5663 5661 5661 5660 5659 5657 5655 5653 5651 5651 5649 5648 5645 5643 5641 5639 5637 5636 5635 5634 5633 5633 5632 5631 5630 5630 5629 5628 5627 5626 5625 5625 5624 5622 5621 5619 5618 5616 5614 5612 5609 5608 5606 5604 5602 5600 5597 5595 5592 5589 5586 5583 5580 5578 5575 5572
5730 5726 5723 5720 5717 5715 5715 5713 5711 5710 5709 5705 5700 5695 5691 5689 5687 5685 5684 5683 5677 5673 5672 5670 5668 5667 5664 5663 5662 5660 5658 5656 5655 5655 5654 5652 5650 5648 5646 5644 5643 5642 5640 5637 5635 5633 5631 5630 5628 5627 5626 5626 5625 5624 5624 5623 5622 5621 5620 5620 5619 5618 5617 5616 5614 5612 5610 5608 5606 5604 5602 5600 5598 5596 5594 5591 5589 5586 5583 5580 5577 5574 5571 5568 5565 5562
5728 5723 5720 5717 5715 5712 5711 5709 5707 5707 5706 5702 5697 5693 5689 5687 5685 5682 5681 5681 5675 5669 5668 5667 5665 5663 5660 5658 5657 5655 5653 5651 5650 5649 5648 5645 5644 5642 5640 5638 5636 5634 5632 5630 5629 5627 5625 5623 5621 5620 5619 5618 5618 5617 5617 5616 5615 5614 5614 5613 5612 5611 5610 5608 5607 5605 5603 5600 5598 5596 5594 5592 5590 5587 5585 5582 5580 5577 5574 5571 5568 5564 5561 5558 5555 5551
5725 5721 5717 5714 5712 5710 5707 5705 5703 5703 5703 5698 5693 5690 5687 5684 5682 5678 5677 5678 5673 5666 5664 5663 5660 5659 5656 5654 5652 5650 5648 5646 5645 5643 5641 5638 5636 5635 5633 5632 5629 5627 5625 5623 5621 5620 5618 5616 5615 5613 5612 5611 5611 5610 5609 5609 5608 5607 5607 5606 5605 5604 5602 5601 5599 5596 5594 5592 5590 5588 5586 5583 5581 5578 5576 5573 5570 5567 5564 5560 5557 5554 5550 5547 5544 5540
5722 5718 5714 5711 5708 5706 5702 5699 5698 5699 5698 5692 5688 5686 5682 5680 5678 5674 5673 5674 5669 5663 5660 5659 5657 5654 5652 5649 5647 5645 5643 5641 5639 5638 5635 5632 5630 5627 5625 5624 5622 5619 5617 5615 5614 5612 5610 5609 5607 5606 5605 5604 5604 5603 5602 5602 5601 5600 5600 5599 5598 5597 5595 5593 5591 5588 5586 5584 5582 5580 5577 5574 5571 5569 5566 5563 5560 5557 5554 5550 5546 5543 5538 5535 5532 5529
5718 5715 5711 5707 5704 5701 5697 5693 5692 5694 5693 5688 5684 5683 5679 5675 5674 5670 5669 5668 5664 5660 5658 5655 5652 5650 5647 5645 5643 5641 5638 5636 5634 5632 5628 5624 5622 5619 5617 5616 5614 5612 5610 5608 5606 5604 5603 5601 5600 5599 5598 5598 5597 5596 5595 5595 5594 5594 5593 5592 5591 5589 5587 5585 5583 5580 5578 5576 5574 5571 5568 5565 5562 5559 5556 5553 5550 5546 5543 5539 5535 5531 5527 5523 5519 5516
5714 5712 5708 5705 5701 5697 5693 5688 5687 5689 5688 5683 5681 5679 5675 5672 5670 5667 5664 5662 5659 5656 5654 5651 5648 5645 5642 5640 5638 5635 5633 5630 5627 5625 5621 5618 5615 5613 5610 5608 5606 5604 5603 5601 5599 5597 5596 5595 5593 5592 5592 5591 5591 5590 5589 5589 5588 5588 5587 5585 5583 5582 5580 5577 5575 5573 5570 5568 5565 5562 5559 5555 5553 5550 5547 5543 5540 5536 5532 5528 5524 5520 5516 5512 5507 5503
5709 5708 5705 5701 5697 5692 5687 5683 5683 5685 5684 5679 5676 5673 5670 5667 5666 5663 5659 5657 5654 5652 5649 5646 5644 5641 5637 5635 5632 5630 5627 5624 5621 5618 5615 5612 5610 5607 5604 5602 5599 5597 5596 5594 5593 5592 5590 5589 5588 5587 5586 5585 5585 5584 5583 5582 5582 5581 5580 5578 5576 5574 5572 5569 5567 5565 5562 5559 5556 5553 5550 5546 5543 5540 5537 5533 5530 5526 5522 5517 5513 5509 5504 5499 5495 5491
5702 5704 5702 5698 5692 5686 5681 5678 5678 5680 5679 5674 5671 5667 5664 5662 5661 5658 5655 5652 5649 5647 5644 5641 5639 5636 5633 5630 5627 5624 5622 5619 5616 5613 5610 5608 5605 5602 5599 5596 5594 5592 5590 5589 5588 5586 5585 5584 5583 5582 5581 5580 5579 5578 5577 5576 5576 5575 5573 5571 5569 5567 5564 5562 5560 5556 5553 5550 5547 5544 5540 5537 5534 5530 5527 5523 5519 5515 5511 5506 5501 5497 5492 5486 5482 5477
5695 5697 5697 5694 5687 5680 5675 5673 5673 5674 5672 5669 5665 5661 5658 5658 5656 5652 5649 5646 5644 5642 5638 5636 5634 5631 5628 5624 5621 5619 5617 5614 5611 5608 5605 5603 5600 5597 5595 5592 5589 5587 5585 5583 5582 5581 5580 5579 5578 5577 5576 5575 5574 5573 5571 5570 5569 5568 5566 5565 5562 5559 5557 5554 5551 5548 5544 5541 5538 5534 5531 5527 5524 5520 5516 5512 5508 5504 5500 5495 5490 5485 5479 5473 5467 5462
5690 5692 5690 5687 5682 5675 5669 5667 5669 5669 5665 5663 5660 5656 5652 5652 5650 5646 5643 5641 5639 5637 5633 5630 5628 5626 5622 5619 5616 5614 5612 5609 5606 5604 5601 5598 5596 5593 5590 5587 5585 5583 5581 5579 5577 5576 5574 5574 5573 5572 5571 5570 5568 5567 5566 5564 5563 5562 5560 5557 5554 5551 5549 5546 5543 5539 5536 5532 5528 5525 5521 5517 5513 5509 5505 5501 5497 5493 5488 5483 5478 5473 5466 5459 5452 5446
5684 5687 5685 5681 5677 5670 5662 5660 5662 5663 5658 5655 5654 5650 5647 5645 5643 5640 5638 5636 5634 5632 5628 5625 5623 5621 5617 5614 5611 5609 5607 5604 5601 5599 5596 5593 5591 5588 5585 5583 5580 5578 5576 5575 5573 5571 5570 5568 5568 5567 5566 5564 5562 5561 5559 5558 5556 5555 5553 5549 5546 5543 5541 5538 5534 5531 5527 5523 5519 5515 5511 5507 5503 5498 5494 5490 5485 5481 5476 5470 5464 5459 5453 5445 5437 5429
5679 5681 5678 5676 5671 5663 5656 5655 5656 5655 5650 5647 5645 5644 5641 5639 5636 5633 5631 5630 5628 5626 5623 5620 5618 5615 5612 5608 5606 5604 5601 5599 5596 5593 5591 5588 5586 5583 5580 5578 5576 5573 5572 5570 5568 5567 5565 5564 5563 5562 5560 5558 5556 5554 5552 5550 5548 5546 5544 5541 5538 5535 5532 5529 5525 5521 5517 5513 5509 5505 5501 5497 5492 5487 5483 5478 5473 5468 5462 5456 5450 5445 5439 5431 5422 5413
5675 5675 5671 5670 5664 5653 5648 5650 5651 5646 5642 5640 5638 5637 5634 5632 5630 5626 5624 5623 5622 5619 5617 5615 5611 5609 5607 5604 5601 5598 5596 5593 5590 5588 5585 5583 5580 5578 5575 5573 5571 5569 5567 5566 5564 5562 5561 5559 5557 5556 5554 5552 5549 5546 5544 5542 5540 5538 5536 5533 5530 5527 5523 5519 5516 5512 5508 5504 5499 5495 5491 5486 5481 5477 5471 5466 5460 5455 5449 5442 5435 5429 5423 5415 5405 5397
5670 5670 5665 5661 5654 5644 5642 5644 5642 5637 5634 5633 5632 5630 5628 5625 5623 5620 5617 5616 5615 5613 5611 5609 5605 5603 5601 5598 5595 5592 5590 5588 5585 5582 5580 5578 5575 5573 5570 5568 5566 5564 5562 5561 5559 5557 5555 5553 5551 5549 5547 5545 5542 5540 5537 5535 5533 5530 5528 5525 5522 5518 5514 5510 5506 5502 5498 5494 5489 5484 5480 5475 5470 5465 5460 5454 5448 5442 5436 5429 5421 5414 5407 5399 5388 5378
5663 5663 5658 5649 5642 5638 5638 5638 5633 5629 5628 5627 5624 5622 5621 5619 5617 5615 5612 5610 5608 5607 5605 5602 5599 5598 5596 5593 5590 5586 5584 5582 5580 5576 5574 5572 5570 5567 5565 5563 5561 5559 5557 5555 5553 5551 5549 5547 5545 5543 5541 5538 5535 5533 5531 5528 5525 5523 5520 5516 5513 5509 5505 5501 5497 5492 5488 5483 5478 5473 5468 5464 5458 5452 5447 5441 5436 5430 5423 5416 5407 5399 5392 5386 5375 5363
5654 5654 5648 5637 5631 5632 5633 5630 5625 5621 5624 5624 5619 5615 5615 5613 5610 5609 5607 5604 5603 5601 5598 5596 5594 5592 5590 5586 5583 5581 5579 5577 5574 5571 5569 5567 5565 5562 5560 5558 5556 5554 5552 5549 5547 5545 5543 5540 5538 5536 5534 5531 5528 5526 5523 5521 5518 5515 5511 5507 5504 5500 5496 5492 5487 5483 5477 5472 5468 5462 5457 5452 5446 5440 5434 5428 5422 5416 5411 5404 5395 5385 5375 5369 5362 5353
5645 5643 5637 5626 5621 5625 5627 5624 5618 5614 5617 5620 5615 5609 5609 5607 5603 5603 5601 5599 5597 5595 5591 5589 5589 5587 5584 5580 5577 5574 5573 5572 5569 5566 5564 5562 5559 5556 5554 5552 5550 5547 5545 5542 5540 5538 5536 5534 5531 5529 5527 5524 5521 5518 5516 5513 5510 5506 5503 5499 5495 5490 5486 5482 5477 5472 5467 5462 5456 5451 5445 5439 5433 5427 5421 5414 5407 5400 5395 5390 5385 5377 5365 5353 5343 5337